sat.trackr.live / text

‹ back to catalog

STARLINK-31931

NORAD 59864 · 2024-098G

PAYLOAD ACTIVE UNKNOWN

§ Identity

Operator
Country
US
Launch date
2024-05-24
Launch site
AFETR
Launch vehicle
Mass (kg)
RCS (m²)

Purposes: comms

External: N2YO · Heavens-Above · Gunter

§ Orbital elements

Epoch: 2026-09-21T00:10:37.990560Z

Period
94.27 min
Inclination
43.0006°
Eccentricity
0.0001291
Mean motion
15.27587176 rev/d
Perigee alt
482.1 km
Apogee alt
483.9 km
Semi-major
6,861.2 km
B*
2.5488e-5
RAAN
255.2723°
Arg perigee
239.2154°
Mean anomaly
120.8571°
Rev number
13,171

§ Raw data

STARLINK-319311 59864U 24098G   26264.00738415  .00000439  00000+0  25488-4 0  99992 59864  43.0006 255.2723 0001291 239.2154 120.8571 15.27587176131718

JSON: /api/v1/satellites/59864 · /tle

For live sub-satellite position, see the globe view (requires WebGL).

§ Visibility from observer

Set your observer location to see the next 7 days of passes ≥ 10°. The values pass through the URL so the page stays shareable.

No JS? Fill the form by hand. The geolocation button needs JavaScript.